RYR19PR EIDW-LIPX

Flight info

Callsign RYR19PR
Flight time N/A
Altitude 37000
Route PESIT2J PESIT DCT BAKUR DCT GUBJE DCT DAVAZ DCT AVZAC DCT ICOSA DCT RUHUN DCT UNZIB DCT NUCHU L607 KONAN UL607 KOK DCT REMBA DCT LIRSU DCT ULNOK L607 UTABA M738 LORLO Q49 MOVOR T897 ANJAT
Aircraft B738/M-SDE2E3FGHIRWXY/LB1

Departure

Time 2026-04-30 18:41
Airport Dublin Airport (EIDW)

Arrival

Time N/A
Airport Verona Villafranca Valerio Catullo Airport (LIPX)
Time Latitude Longitude Altitude Speed Heading
2026-04-30 18:22 53.43113 -6.24985 214 ft 0 kts 185°
2026-04-30 18:29 53.43124 -6.24983 214 ft 2 kts 186°
2026-04-30 18:30 53.43152 -6.24993 213 ft 2 kts 150°
2026-04-30 18:30 53.43173 -6.25028 213 ft 2 kts 118°
2026-04-30 18:31 53.43179 -6.25051 213 ft 2 kts 102°
2026-04-30 18:31 53.43180 -6.25071 213 ft 0 kts 94°
2026-04-30 18:33 53.43180 -6.25064 213 ft 1 kts 94°
2026-04-30 18:34 53.43181 -6.25017 213 ft 7 kts 83°
2026-04-30 18:34 53.43189 -6.24794 215 ft 8 kts 97°
2026-04-30 18:34 53.43187 -6.24711 216 ft 6 kts 77°
2026-04-30 18:35 53.43195 -6.24654 216 ft 3 kts 80°
2026-04-30 18:35 53.43195 -6.24652 216 ft 0 kts 80°
2026-04-30 18:35 53.43195 -6.24648 216 ft 0 kts 81°
2026-04-30 18:36 53.43195 -6.24646 217 ft 0 kts 82°
2026-04-30 18:37 53.43196 -6.24613 217 ft 5 kts 91°
2026-04-30 18:37 53.43193 -6.24522 219 ft 8 kts 95°
2026-04-30 18:37 53.43206 -6.24430 219 ft 9 kts 43°
2026-04-30 18:37 53.43275 -6.24408 219 ft 10 kts
2026-04-30 18:38 53.43338 -6.24433 218 ft 9 kts 303°
2026-04-30 18:38 53.43357 -6.24540 217 ft 9 kts 307°
2026-04-30 18:38 53.43400 -6.24561 216 ft 6 kts
2026-04-30 18:38 53.43411 -6.24559 216 ft 0 kts
2026-04-30 18:39 53.43415 -6.24559 216 ft 3 kts
2026-04-30 18:39 53.43466 -6.24541 216 ft 10 kts 16°
2026-04-30 18:39 53.43523 -6.24558 215 ft 9 kts 293°
2026-04-30 18:40 53.43531 -6.24668 214 ft 10 kts 275°
2026-04-30 18:40 53.43545 -6.24906 212 ft 46 kts 276°
2026-04-30 18:40 53.43594 -6.25866 218 ft 116 kts 275°
2026-04-30 18:40 53.43692 -6.27569 295 ft 167 kts 277°
2026-04-30 18:41 53.43808 -6.29473 901 ft 174 kts 274°
2026-04-30 18:41 53.44154 -6.31519 1401 ft 195 kts 301°
2026-04-30 18:41 53.45145 -6.33144 1873 ft 211 kts 324°
2026-04-30 18:41 53.46320 -6.34797 2280 ft 227 kts 315°
2026-04-30 18:42 53.47382 -6.36856 2690 ft 241 kts 306°
2026-04-30 18:42 53.49434 -6.41740 3513 ft 274 kts 303°
2026-04-30 18:42 53.50557 -6.44424 3990 ft 287 kts 304°
2026-04-30 18:45 53.40461 -6.55203 11203 ft 262 kts 148°
2026-04-30 18:45 53.38936 -6.53534 11981 ft 264 kts 148°
2026-04-30 18:45 53.37387 -6.51885 12738 ft 267 kts 149°
2026-04-30 18:46 53.35815 -6.50234 13487 ft 270 kts 149°
2026-04-30 18:46 53.34222 -6.48567 14246 ft 273 kts 149°
2026-04-30 18:46 53.32600 -6.46870 14980 ft 276 kts 149°
2026-04-30 18:46 53.30966 -6.45200 15749 ft 278 kts 152°
2026-04-30 18:47 53.29215 -6.43707 16217 ft 290 kts 155°
2026-04-30 18:47 53.27336 -6.42298 16592 ft 305 kts 156°
2026-04-30 18:47 53.25355 -6.40837 16974 ft 319 kts 156°
2026-04-30 18:47 53.23304 -6.39299 17385 ft 331 kts 156°
2026-04-30 18:48 53.21202 -6.37696 18041 ft 336 kts 156°
2026-04-30 18:48 53.19071 -6.36055 18741 ft 339 kts 155°
2026-04-30 18:48 53.16942 -6.34410 19395 ft 342 kts 156°
2026-04-30 18:48 53.14781 -6.32743 20042 ft 345 kts 156°
2026-04-30 18:49 53.12598 -6.31060 20670 ft 349 kts 156°
2026-04-30 18:49 53.10398 -6.29366 21267 ft 353 kts 156°
2026-04-30 18:49 53.08147 -6.27634 21866 ft 356 kts 156°
2026-04-30 18:49 53.05892 -6.25903 22438 ft 359 kts 156°
2026-04-30 18:50 53.03625 -6.24164 22958 ft 363 kts 156°
2026-04-30 18:50 53.01339 -6.22413 23068 ft 366 kts 156°
2026-04-30 18:50 52.99029 -6.20646 23067 ft 362 kts 156°
2026-04-30 18:50 52.96764 -6.18915 23069 ft 362 kts 156°
2026-04-30 18:51 52.94440 -6.17140 23283 ft 370 kts 156°
2026-04-30 18:51 52.92120 -6.15362 24009 ft 368 kts 156°
2026-04-30 18:51 52.89820 -6.13594 24501 ft 371 kts 156°